Regional Weather Roundup
Issued by NWS

Home | Current Version | Previous Version | Graphics & Text | Print | Product List | Glossary On
Versions: 1 2 3 4 5 6 7 8 9 10 11 12 13 14 15 16 17 18 19 20 21 22 23 24 25 26 27 28 29 30 31 32 33 34 35 36 37 38 39 40 41 42 43 44 45 46 47 48 49 50
772
ASUS43 KLSX 241510
RWRMO

WEATHER SUMMARY FOR MISSOURI
NATIONAL WEATHER SERVICE SPRINGFIELD MO
1000 AM CDT MON APR 24 2017

NOTE: "FAIR" INDICATES FEW OR NO CLOUDS BELOW 12,000 FEET WITH NO
       SIGNIFICANT WEATHER AND/OR OBSTRUCTIONS TO VISIBILITY.
       CURRENT SKY AND/OR WEATHER CONDITIONS ARE NOT AVAILABLE FOR
       CHILLICOTHE AND FARMINGTON.

MOZ001>031-035>038-043-044-053-054-241600-
...NORTHERN AND WESTERN MISSOURI...

CITY           SKY/WX    TMP DP  RH WIND       PRES   REMARKS
KANSAS CTY INT PTSUNNY   64  37  36 S24G32    29.85F
KANSAS C DTWN  SUNNY     66  36  32 S22       29.86F
LEE`S SUMMIT   SUNNY     64  35  34 S21G30    29.89F
ST JOSEPH      SUNNY     64  41  42 S21G26    29.83F
CHILLICOTHE      N/A     63  40  42 SE9       29.91F
KIRKSVILLE     CLOUDY    65  34  31 S17G23    29.94F

$$
MOZ066>068-077>081-088>096-101>105-241600-
...SOUTHWEST MISSOURI...

CITY           SKY/WX    TMP DP  RH WIND       PRES   REMARKS
SPRINGFIELD    SUNNY     62  40  44 SE9       29.97S
JOPLIN         SUNNY     65  42  43 S13       29.94F
BRANSON        MOSUNNY   64  37  36 SE6       30.00S

$$
MOZ032>034-039>042-045>050-055>058-069>072-241600-
...CENTRAL MISSOURI...

CITY           SKY/WX    TMP DP  RH WIND       PRES   REMARKS
COLUMBIA       SUNNY     63  37  38 S9        29.97F
JEFFERSON CITY SUNNY     58  43  57 SE6       29.97F
ROLLA          SUNNY     61  42  49 S6        29.97S
SEDALIA        SUNNY     66  40  38 S13       29.96F
WHITEMAN AFB   MOSUNNY   63  40  42 S15       29.92F
OSAGE BEACH    SUNNY     61  41  47 S6        29.98F

$$
MOZ051-052-059>065-241600-
...EAST CENTRAL MISSOURI...

CITY           SKY/WX    TMP DP  RH WIND       PRES   REMARKS
ST LOUIS INTL  CLOUDY    64  38  38 E6        29.97S
SPIRIT OF STL  CLOUDY    59  45  59 CALM      29.97S
ST CHARLES     CLOUDY    65  40  39 SE3       29.96F

$$
MOZ072>076-082>087-097>100-106>115-241600-
...SOUTH CENTRAL AND SOUTHEAST MISSOURI...

CITY           SKY/WX    TMP DP  RH WIND       PRES   REMARKS
CAPE GIRARDEAU SUNNY     65  46  50 NE6       29.93S
FARMINGTON     SUNNY     62  42  47 E3        29.97S
POPLAR BLUFF     N/A     63  43  48 NE9       29.94S
WEST PLAINS    SUNNY     65  35  33 CALM      29.99S

$$




USA.gov is the U.S. government's official web portal to all federal, state and local government web resources and services.